Weather History for KVTN - April, 2013

Change the Weather History Date:

Thursday, April 25, 2013

  Actual Average Record
Temperature  
Mean Temperature 51 °F 50 °F  
Max Temperature 74 °F 64 °F 93 °F (1962)
Min Temperature 27 °F 37 °F 21 °F (1958)
Degree Days  
Heating Degree Days 14 15  
Month to date heating degree days 700 485  
Since 1 July heating degree days 6605 6614  
Cooling Degree Days 0 0  
Month to date cooling degree days 0 0  
Year to date cooling degree days 0 0  
Moisture  
Dew Point 23 °F    
Average Humidity 47    
Maximum Humidity 85    
Minimum Humidity 9    
Precipitation  
Precipitation 0.00 in 0.08 in 0.90 in (1994)
Month to date precipitation 1.81 1.76  
Year to date precipitation 4.61 3.57  
Snow  
Snow 0.00 in 0.10 in 3.00 in (1988)
Month to date snowfall 14.2 4.2  
Since 1 July snowfall 52.0 32.8  
Snow Depth 0.00 in    
Sea Level Pressure  
Sea Level Pressure 30.01 in    
Wind  
Wind Speed 13 mph (SW)    
Max Wind Speed 31 mph    
Max Gust Speed 37 mph    
T = Trace of Precipitation, MM = Missing Value Source: NWS Daily Summary

Daily Weather History Graph

Daily Weather History Graph

Search for Another Location

Airport or City:

Trip Planner

Search our weather history database for the weather conditions in past years. The results will help you decide how hot, cold, wet, or windy it might be!

Date:

Astronomy

Apr. 25, 2013 Rise Set
Actual Time 6:44 AM CDT 8:36 PM CDT
Civil Twilight 6:14 AM CDT 9:06 PM CDT
Nautical Twilight 5:37 AM CDT 9:44 PM CDT
Astronomical Twilight 4:57 AM CDT 10:24 PM CDT
Moon 8:52 PM CDT (4/25) 6:28 AM CDT (4/25)
Length of Visible Light 14h 52m
Length of Day
13h 51m
Full, 100% of the Moon is Illuminated
Apr 25
Full
Apr 25
Full
May 2
Last Quarter
May 9
New
May 17
First Quarter

Hourly Weather History & Observations

Time (CDT) Temp. Windchill Dew Point Humidity Pressure Visibility Wind Dir Wind Speed Gust Speed Precip Events Conditions
12:52 AM 30.0 °F 22.4 °F 24.1 °F 79% 30.21 in - SW 8.1 mph - N/A   Clear
1:52 AM 28.0 °F 20.0 °F 24.1 °F 85% 30.21 in - WSW 8.1 mph - N/A   Clear
2:52 AM 28.0 °F 20.0 °F 24.1 °F 85% 30.19 in - SW 8.1 mph - N/A   Clear
3:52 AM 28.9 °F 21.1 °F 25.0 °F 85% 30.18 in - SW 8.1 mph - N/A   Clear
4:52 AM 30.0 °F 20.0 °F 26.1 °F 85% 30.17 in - SW 12.7 mph - N/A   Clear
5:52 AM 30.0 °F 23.2 °F 25.0 °F 82% 30.17 in - SW 6.9 mph - N/A   Clear
6:52 AM 28.9 °F 23.9 °F 24.1 °F 82% 30.16 in - SSW 4.6 mph - N/A   Clear
7:52 AM 32.0 °F 26.4 °F 28.0 °F 85% 30.14 in - SSW 5.8 mph - N/A   Clear
8:52 AM 42.1 °F 37.1 °F 30.0 °F 62% 30.12 in - South 8.1 mph - N/A   Clear
9:52 AM 48.0 °F - 27.0 °F 44% 30.08 in - SSW 26.5 mph 33.4 mph N/A   Clear
10:52 AM 54.0 °F - 28.0 °F 37% 30.04 in - SSW 23.0 mph 31.1 mph N/A   Clear
11:52 AM 60.1 °F - 27.0 °F 28% 30.01 in - SSW 26.5 mph 35.7 mph N/A   Clear
12:52 PM 64.9 °F - 26.1 °F 23% 29.97 in - SSW 19.6 mph 31.1 mph N/A   Clear
1:52 PM 71.1 °F - 21.9 °F 16% 29.93 in - WSW 21.9 mph 25.3 mph N/A   Clear
2:52 PM 73.0 °F - 19.0 °F 13% 29.89 in - SW 24.2 mph 31.1 mph N/A   Clear
3:52 PM 73.9 °F - 12.9 °F 10% 29.86 in - SW 26.5 mph 34.5 mph N/A   Clear
4:52 PM 73.9 °F - 12.0 °F 9% 29.83 in - WSW 20.7 mph 28.8 mph N/A   Clear
6:52 PM 72.0 °F - 10.0 °F 9% 29.82 in - SW 16.1 mph 24.2 mph N/A   Clear
7:52 PM 66.9 °F - 18.0 °F 15% 29.82 in - West 6.9 mph - N/A   Clear
8:52 PM 57.0 °F - 21.9 °F 26% 29.82 in - SW 5.8 mph - N/A   Clear
9:52 PM 57.9 °F - 21.0 °F 24% 29.86 in - Calm Calm - N/A   Clear
10:52 PM 46.9 °F - 27.0 °F 46% 29.88 in - ENE 3.5 mph - N/A   Clear
11:52 PM 41.0 °F 39.0 °F 28.9 °F 62% 29.88 in - West 3.5 mph - N/A   Clear